Location: Hurstbourne Priors
(51.2000°N, 1.3667°W)
Time: 19:50:10
(UTC+00:00)

Transit 4A - Pass Details

Date: 25 April 2021
Orbit: 870 x 974 km, 66.8° (Epoch: 09 May)

Event Time Altitude Azimuth Distance (km) Brightness Sun altitude
Rises 05:18:16 0° 320° (NW) 3,540 10.7 3.4°
Reaches altitude 10° 05:21:02 10° 329° (NNW) 2,581 10.1 3.8°
Maximum altitude 05:26:31 36° 36° (NE) 1,362 9.6 4.6°
Drops below altitude 10° 05:31:53 10° 103° (ESE) 2,527 11.5 5.5°
Sets 05:34:33 0° 111° (ESE) 3,456 11.9 5.9°
